Change the Weather History Date:

Saturday, May 18, 2013

  Actual Average Record
Temperature  
Mean Temperature 72 °F -  
Max Temperature 84 °F - - ()
Min Temperature 59 °F - - ()
Cooling Degree Days 6    
Growing Degree Days 22 (Base 50)    
Moisture  
Dew Point 56 °F    
Average Humidity 60    
Maximum Humidity 100    
Minimum Humidity 22    
Precipitation  
Precipitation 0.00 in - - ()
Sea Level Pressure  
Sea Level Pressure 29.95 in    
Wind  
Wind Speed 1 mph ()    
Max Wind Speed 2 mph    
Max Gust Speed -    
Visibility 11.2 miles    
Events      
T = Trace of Precipitation, MM = Missing Value Source: Averaged Metar Reports

Daily Weather History Graph

Daily Weather History Graph

Search for Another Location

Airport or City:

Trip Planner

Search our weather history database for the weather conditions in past years. The results will help you decide how hot, cold, wet, or windy it might be!

Date:

Astronomy

May. 18, 2013 Rise Set
Actual Time 5:43 AM CEST 8:15 PM CEST
Civil Twilight 5:12 AM CEST 8:47 PM CEST
Nautical Twilight 4:33 AM CEST 9:26 PM CEST
Astronomical Twilight 3:50 AM CEST 10:10 PM CEST
Moon 1:00 PM CEST (5/18) 1:29 AM CEST (5/18)
Length of Visible Light 15h 34m
Length of Day
14h 32m
First Quarter, 52% of the Moon is Illuminated
May 18
First Quarter
May 25
Full
May 31
Last Quarter
Jun 8
New
Jun 16
First Quarter

Hourly Weather History & Observations

Time (CEST) Temp. Heat Index Dew Point Humidity Pressure Visibility Wind Dir Wind Speed Gust Speed Precip Events Conditions
1:55 AM 59.0 °F - 59.0 °F 100% 29.95 in - North - - N/A   Clear
2:00 AM 60 °F - 59 °F 94% 29.96 in 6 mi Calm Calm - -  
2:55 AM 59.0 °F - 59.0 °F 100% 29.95 in - North - - N/A   Clear
3:55 AM 59.0 °F - 57.2 °F 94% 29.95 in - North - - N/A   Clear
5:00 AM 59 °F - 58 °F 97% 29.96 in 12 mi 1.2 mph - -  
5:55 AM 60.8 °F - 60.8 °F 100% 29.95 in - North - - N/A   Clear
6:55 AM 60.8 °F - 59.0 °F 94% 29.98 in - North - - N/A   Clear
7:55 AM 62.6 °F - 59.0 °F 88% 30.01 in - North - - N/A   Mostly Cloudy
8:00 AM 63 °F - 58 °F 80% 30.00 in 12 mi Calm Calm - -   Mostly Cloudy
8:55 AM 64.4 °F - 57.2 °F 77% 30.01 in - North - - N/A   Clear
9:55 AM 68.0 °F - 59.0 °F 73% 29.98 in - North - - N/A   Clear
10:55 AM 69.8 °F - 59.0 °F 68% 30.01 in - North - - N/A   Clear
11:00 AM 70 °F - 59 °F 59% 29.99 in 12 mi North 2.3 mph - -   Partly Cloudy
11:55 AM 73.4 °F - 60.8 °F 65% 30.01 in - North - - N/A   Clear
12:55 PM 77.0 °F - 55.4 °F 47% 30.01 in - North - - N/A   Clear
1:55 PM 77.0 °F - 53.6 °F 44% 29.98 in - North - - N/A   Clear
2:00 PM 77 °F - 53 °F 33% 29.96 in 12 mi North 2.3 mph - -   Partly Cloudy
2:55 PM 80.6 °F - 50.0 °F 34% 29.95 in - North - - N/A   Clear
3:55 PM 84.2 °F - 51.8 °F 33% 29.95 in - North - - N/A   Clear
4:55 PM 82.4 °F - 50.0 °F 32% 29.92 in - North - - N/A   Clear
5:00 PM 83 °F - 51 °F 22% 29.91 in 12 mi Calm Calm - -  
5:55 PM 82.4 °F 81.4 °F 53.6 °F 37% 29.92 in - North - - N/A   Clear
6:55 PM 82.4 °F 81.4 °F 53.6 °F 37% 29.92 in - North - - N/A   Clear
7:55 PM 78.8 °F - 51.8 °F 39% 29.89 in - North - - N/A   Clear
8:00 PM 80 °F - 52 °F 27% 29.87 in 12 mi North 2.3 mph - -  
8:55 PM 80.6 °F 80.5 °F 55.4 °F 42% 29.86 in - North - - N/A   Clear
9:55 PM 80.6 °F 80.5 °F 55.4 °F 42% 29.89 in - North - - N/A   Clear
11:00 PM 80 °F - 55 °F 32% 29.86 in 12 mi North 2.3 mph - -  
11:55 PM 78.8 °F - 53.6 °F 42% 29.86 in - North - - N/A   Clear